TimeEDT,TemperatureF,Dew PointF,Humidity,Sea Level PressureIn,VisibilityMPH,Wind Direction,Wind SpeedMPH,Gust SpeedMPH,PrecipitationIn,Events,Conditions,WindDirDegrees,DateUTC
12:54 AM,57.0,50.0,77,29.79,10.0,Calm,Calm,-,N/A,,Overcast,0,2013-06-13 04:54:00
1:54 AM,55.9,48.9,77,29.78,10.0,Calm,Calm,-,N/A,,Mostly Cloudy,0,2013-06-13 05:54:00
2:54 AM,50.0,48.0,93,29.79,10.0,Calm,Calm,-,N/A,,Clear,0,2013-06-13 06:54:00
3:54 AM,54.0,48.0,80,29.78,10.0,Calm,Calm,-,N/A,,Clear,0,2013-06-13 07:54:00
4:54 AM,52.0,48.0,86,29.79,10.0,Calm,Calm,-,N/A,,Clear,0,2013-06-13 08:54:00
5:54 AM,48.0,46.9,96,29.81,10.0,Calm,Calm,-,N/A,,Clear,0,2013-06-13 09:54:00
6:54 AM,54.0,50.0,86,29.81,10.0,Calm,Calm,-,N/A,,Clear,0,2013-06-13 10:54:00
7:54 AM,62.1,50.0,65,29.81,10.0,Calm,Calm,-,N/A,,Clear,0,2013-06-13 11:54:00
8:54 AM,66.0,48.9,54,29.79,10.0,Calm,Calm,-,N/A,,Clear,0,2013-06-13 12:54:00
9:54 AM,66.9,50.0,54,29.79,10.0,Variable,3.5,-,N/A,,Clear,0,2013-06-13 13:54:00
10:54 AM,70.0,50.0,49,29.79,10.0,Calm,Calm,-,N/A,,Clear,0,2013-06-13 14:54:00
11:54 AM,70.0,52.0,53,29.77,10.0,Variable,5.8,-,N/A,,Clear,0,2013-06-13 15:54:00
12:54 PM,69.1,51.1,53,29.76,10.0,SSE,5.8,-,N/A,,Scattered Clouds,160,2013-06-13 16:54:00
1:54 PM,69.1,51.1,53,29.75,10.0,SSE,5.8,-,N/A,,Clear,160,2013-06-13 17:54:00
2:54 PM,66.9,51.1,57,29.74,10.0,South,4.6,-,N/A,,Clear,170,2013-06-13 18:54:00
3:54 PM,68.0,52.0,56,29.73,10.0,SE,3.5,-,N/A,,Clear,130,2013-06-13 19:54:00
4:54 PM,66.9,53.1,61,29.72,10.0,SE,4.6,-,N/A,,Partly Cloudy,140,2013-06-13 20:54:00
5:54 PM,64.9,55.0,70,29.73,10.0,SSE,4.6,-,N/A,,Mostly Cloudy,160,2013-06-13 21:54:00
6:54 PM,63.0,53.1,70,29.73,10.0,South,3.5,-,N/A,,Overcast,170,2013-06-13 22:54:00
7:54 PM,60.1,52.0,75,29.75,10.0,South,3.5,-,N/A,,Mostly Cloudy,190,2013-06-13 23:54:00
8:54 PM,57.9,53.1,84,29.76,10.0,Calm,Calm,-,N/A,,Partly Cloudy,0,2013-06-14 00:54:00
9:54 PM,55.9,53.1,90,29.75,10.0,Calm,Calm,-,N/A,,Mostly Cloudy,0,2013-06-14 01:54:00
10:54 PM,55.9,53.1,90,29.75,10.0,Calm,Calm,-,N/A,,Partly Cloudy,0,2013-06-14 02:54:00
11:54 PM,55.0,53.1,93,29.74,10.0,Calm,Calm,-,N/A,,Overcast,0,2013-06-14 03:54:00